SWR167L KSFO-LSZH

Flight info

Callsign SWR167L
Flight time N/A
Altitude 33000
Route SNTNA2 DEDHD DCT LKV DCT MLP J540 YQL Q896 BORIX DCT 55N103W/N0489F350 59N095W 62N085W 65N070W/M082F350 DCT EPMAN DCT 66N050W/M083F370 66N040W 65N030W 63N020W DCT ATSIX/N0470F370 DCT AKIVO DCT NEXUS DCT TOPPA DCT SUTAL DCT GTQ DCT BAMEV DCT BLM
Aircraft B77W/H-SDE1E2E3FGHIJ2J3J4J5M1RWXY/LB1D1

Departure

Time 2026-05-03 22:32
Airport San Francisco International Airport (KSFO)

Arrival

Time N/A
Airport Zürich Airport (LSZH)
Time Latitude Longitude Altitude Speed Heading
2026-05-03 22:04 37.61871 -122.39175 38 ft 0 kts 208°
2026-05-03 22:18 37.61872 -122.39175 38 ft 1 kts 208°
2026-05-03 22:18 37.61884 -122.39166 38 ft 2 kts 221°
2026-05-03 22:19 37.61894 -122.39152 38 ft 2 kts 235°
2026-05-03 22:19 37.61902 -122.39136 38 ft 2 kts 247°
2026-05-03 22:19 37.61906 -122.39117 38 ft 2 kts 260°
2026-05-03 22:19 37.61908 -122.39099 38 ft 2 kts 272°
2026-05-03 22:20 37.61906 -122.39081 38 ft 2 kts 285°
2026-05-03 22:20 37.61901 -122.39062 38 ft 2 kts 297°
2026-05-03 22:20 37.61898 -122.39056 38 ft 0 kts 300°
2026-05-03 22:20 37.61898 -122.39057 38 ft 0 kts 300°
2026-05-03 22:22 37.61908 -122.39078 38 ft 9 kts 298°
2026-05-03 22:22 37.61940 -122.39158 38 ft 7 kts 297°
2026-05-03 22:23 37.61962 -122.39214 38 ft 6 kts 297°
2026-05-03 22:23 37.62007 -122.39240 38 ft 9 kts 11°
2026-05-03 22:23 37.62082 -122.39202 38 ft 13 kts 26°
2026-05-03 22:23 37.62177 -122.39137 38 ft 11 kts 27°
2026-05-03 22:24 37.62228 -122.39077 37 ft 8 kts 64°
2026-05-03 22:24 37.62250 -122.39009 36 ft 4 kts 69°
2026-05-03 22:24 37.62260 -122.38973 36 ft 3 kts 75°
2026-05-03 22:24 37.62254 -122.38908 37 ft 11 kts 109°
2026-05-03 22:25 37.62208 -122.38782 37 ft 19 kts 117°
2026-05-03 22:25 37.62129 -122.38592 38 ft 32 kts 118°
2026-05-03 22:25 37.62024 -122.38341 38 ft 30 kts 118°
2026-05-03 22:25 37.61930 -122.38114 38 ft 27 kts 118°
2026-05-03 22:26 37.61846 -122.37907 36 ft 25 kts 116°
2026-05-03 22:26 37.61777 -122.37700 32 ft 25 kts 111°
2026-05-03 22:26 37.61706 -122.37486 25 ft 28 kts 116°
2026-05-03 22:26 37.61617 -122.37266 21 ft 23 kts 117°
2026-05-03 22:27 37.61542 -122.37087 18 ft 22 kts 117°
2026-05-03 22:27 37.61466 -122.36925 18 ft 19 kts 127°
2026-05-03 22:27 37.61379 -122.36803 18 ft 17 kts 128°
2026-05-03 22:27 37.61321 -122.36671 18 ft 16 kts 117°
2026-05-03 22:28 37.61268 -122.36546 18 ft 16 kts 119°
2026-05-03 22:28 37.61212 -122.36418 16 ft 16 kts 118°
2026-05-03 22:28 37.61157 -122.36284 15 ft 17 kts 117°
2026-05-03 22:28 37.61104 -122.36151 15 ft 15 kts 110°
2026-05-03 22:29 37.61142 -122.36081 15 ft 3 kts 28°
2026-05-03 22:29 37.61142 -122.36080 15 ft 0 kts 28°
2026-05-03 22:30 37.61147 -122.36077 15 ft 2 kts 27°
2026-05-03 22:30 37.61182 -122.36056 15 ft 9 kts 25°
2026-05-03 22:30 37.61245 -122.36025 15 ft 5 kts 357°
2026-05-03 22:30 37.61263 -122.36051 15 ft 0 kts 299°
2026-05-03 22:31 37.61331 -122.36213 16 ft 50 kts 298°
2026-05-03 22:32 37.61589 -122.36827 18 ft 107 kts 297°
2026-05-03 22:32 37.62015 -122.37845 35 ft 155 kts 297°
2026-05-03 22:32 37.62585 -122.39198 223 ft 181 kts 295°
2026-05-03 22:32 37.63144 -122.40602 703 ft 186 kts 296°
2026-05-03 22:33 37.63785 -122.42060 1267 ft 194 kts 298°
2026-05-03 22:33 37.64458 -122.43534 1739 ft 200 kts 298°
2026-05-03 22:33 37.65155 -122.45068 2285 ft 202 kts 298°
2026-05-03 22:33 37.65831 -122.46605 2846 ft 202 kts 298°
2026-05-03 22:34 37.66516 -122.48186 3280 ft 211 kts 298°
2026-05-03 22:34 37.67226 -122.49855 3675 ft 222 kts 296°
2026-05-03 22:34 37.68132 -122.51466 4104 ft 233 kts 316°
2026-05-03 22:34 37.69572 -122.52544 4425 ft 249 kts 345°
2026-05-03 22:35 37.71354 -122.52766 4767 ft 265 kts
2026-05-03 22:35 37.73221 -122.52679 5296 ft 275 kts
2026-05-03 22:35 37.75145 -122.52668 6027 ft 279 kts
2026-05-03 22:35 37.77095 -122.52720 6670 ft 284 kts
2026-05-03 22:36 37.79049 -122.52374 7271 ft 285 kts 25°
2026-05-03 22:36 37.80682 -122.51031 7944 ft 280 kts 51°
2026-05-03 22:36 37.81734 -122.49065 8588 ft 279 kts 66°
2026-05-03 22:36 37.82491 -122.47075 9253 ft 278 kts 69°
2026-05-03 22:37 37.83445 -122.44611 9995 ft 283 kts 58°
2026-05-03 22:37 37.84749 -122.42709 10401 ft 300 kts 45°
2026-05-03 22:37 37.86505 -122.41087 10708 ft 320 kts 31°
2026-05-03 22:37 37.88613 -122.39924 11053 ft 338 kts 25°
2026-05-03 22:38 37.90826 -122.38738 11438 ft 352 kts 27°
2026-05-03 22:38 37.93068 -122.37392 11829 ft 366 kts 29°
2026-05-03 22:38 37.95381 -122.35937 12262 ft 380 kts 29°
2026-05-03 22:38 37.97778 -122.34408 12884 ft 387 kts 30°
2026-05-03 22:39 38.00186 -122.32866 13625 ft 391 kts 30°
2026-05-03 22:39 38.02623 -122.31300 14355 ft 395 kts 30°
2026-05-03 22:39 38.05080 -122.29720 15115 ft 398 kts 30°
2026-05-03 22:39 38.07580 -122.28109 15852 ft 402 kts 30°
2026-05-03 22:40 38.10036 -122.26525 16553 ft 405 kts 30°
2026-05-03 22:40 38.12550 -122.24901 17241 ft 409 kts 30°
2026-05-03 22:40 38.15125 -122.23237 17914 ft 413 kts 30°
2026-05-03 22:40 38.17694 -122.21574 18581 ft 417 kts 31°
2026-05-03 22:41 38.20267 -122.19908 19270 ft 419 kts 31°
2026-05-03 22:41 38.22855 -122.18231 19999 ft 420 kts 31°
2026-05-03 22:41 38.25464 -122.16538 20709 ft 421 kts 31°
2026-05-03 22:41 38.28057 -122.14854 21394 ft 423 kts 31°
2026-05-03 22:42 38.30698 -122.13138 22014 ft 425 kts 32°
2026-05-03 22:42 38.33371 -122.11494 22589 ft 431 kts 26°
2026-05-03 22:42 38.36246 -122.10284 23256 ft 435 kts 21°
2026-05-03 22:42 38.39125 -122.09238 23893 ft 436 kts 20°
2026-05-03 22:43 38.42087 -122.08168 24440 ft 440 kts 21°
2026-05-03 22:43 38.45043 -122.07098 24985 ft 442 kts 20°
2026-05-03 22:43 38.47988 -122.06030 25550 ft 444 kts 21°
2026-05-03 22:43 38.50945 -122.04956 26093 ft 446 kts 21°
2026-05-03 22:44 38.53949 -122.03862 26618 ft 448 kts 21°
2026-05-03 22:44 38.56974 -122.02760 27124 ft 450 kts 21°
2026-05-03 22:44 38.60007 -122.01653 27623 ft 452 kts 21°
2026-05-03 22:44 38.63054 -122.00540 28084 ft 455 kts 21°
2026-05-03 22:45 38.66071 -121.99437 28546 ft 458 kts 21°
2026-05-03 22:45 38.69155 -121.98309 29041 ft 460 kts 21°
2026-05-03 22:45 38.72265 -121.97169 29535 ft 461 kts 21°
2026-05-03 22:45 38.75301 -121.96058 30138 ft 459 kts 21°
2026-05-03 22:46 38.78376 -121.94931 30813 ft 455 kts 21°
2026-05-03 22:46 38.81410 -121.93817 31334 ft 454 kts 21°
2026-05-03 22:46 38.84462 -121.92694 31684 ft 456 kts 21°
2026-05-03 22:46 38.87529 -121.91565 32004 ft 459 kts 21°
2026-05-03 22:47 38.90575 -121.90443 32409 ft 458 kts 21°
2026-05-03 22:47 38.93646 -121.89311 32798 ft 459 kts 21°
2026-05-03 22:47 38.96739 -121.88170 32881 ft 461 kts 21°
2026-05-03 22:48 39.02851 -121.85913 32889 ft 455 kts 21°
2026-05-03 22:48 39.08973 -121.83646 32891 ft 459 kts 21°
2026-05-03 22:49 39.15025 -121.81402 32895 ft 456 kts 21°
2026-05-03 22:49 39.21149 -121.79126 32891 ft 459 kts 20°
2026-05-03 22:50 39.27286 -121.76842 32887 ft 460 kts 21°
2026-05-03 22:50 39.33440 -121.74548 32900 ft 460 kts 21°
2026-05-03 22:51 39.39592 -121.72250 32900 ft 463 kts 20°
2026-05-03 22:51 39.45764 -121.69941 32911 ft 461 kts 21°
2026-05-03 22:52 39.51955 -121.67619 32903 ft 463 kts 21°
2026-05-03 22:52 39.58116 -121.65305 32916 ft 463 kts 20°
2026-05-03 22:53 39.64316 -121.62972 32924 ft 464 kts 20°
2026-05-03 22:53 39.70499 -121.60640 32920 ft 464 kts 21°
2026-05-03 22:54 39.76738 -121.58284 32929 ft 465 kts 20°
2026-05-03 22:54 39.82936 -121.55937 32950 ft 469 kts 20°
2026-05-03 22:54 39.86105 -121.54736 33241 ft 470 kts 20°
2026-05-03 22:55 39.89228 -121.53553 33813 ft 466 kts 20°
2026-05-03 22:55 39.92331 -121.52376 34320 ft 462 kts 21°
2026-05-03 22:55 39.95384 -121.51216 34713 ft 460 kts 20°
2026-05-03 22:55 39.98430 -121.50056 34915 ft 460 kts 20°
2026-05-03 22:56 40.01495 -121.48889 34961 ft 463 kts 20°
2026-05-03 22:56 40.07685 -121.46529 34971 ft 463 kts 20°
2026-05-03 22:57 40.13881 -121.44162 34974 ft 462 kts 20°
2026-05-03 22:57 40.20072 -121.41792 34980 ft 463 kts 20°
2026-05-03 22:58 40.26228 -121.39431 34983 ft 463 kts 20°
2026-05-03 22:58 40.32437 -121.37046 34997 ft 463 kts 20°
2026-05-03 22:59 40.38618 -121.34666 35008 ft 463 kts 20°
2026-05-03 22:59 40.44763 -121.32296 35028 ft 462 kts 20°
2026-05-03 23:00 40.50945 -121.29907 35035 ft 464 kts 20°
2026-05-03 23:00 40.57176 -121.27495 35038 ft 464 kts 20°
2026-05-03 23:01 40.63352 -121.25099 35033 ft 463 kts 20°
2026-05-03 23:01 40.69528 -121.22698 35018 ft 464 kts 20°
2026-05-03 23:02 40.75697 -121.20296 35013 ft 464 kts 20°
2026-05-03 23:02 40.81895 -121.17878 35013 ft 463 kts 20°
2026-05-03 23:03 40.88047 -121.15473 35009 ft 463 kts 20°
2026-05-03 23:03 40.94243 -121.13046 35013 ft 464 kts 19°
2026-05-03 23:04 41.00446 -121.10611 35002 ft 465 kts 20°
2026-05-03 23:04 41.06612 -121.08187 35015 ft 465 kts 20°
2026-05-03 23:05 41.12836 -121.05734 35021 ft 464 kts 19°
2026-05-03 23:05 41.18959 -121.03318 35039 ft 462 kts 19°
2026-05-03 23:06 41.25151 -121.00867 35035 ft 463 kts 19°
2026-05-03 23:06 41.31321 -120.98423 35039 ft 462 kts 19°
2026-05-03 23:07 41.37475 -120.95978 35036 ft 463 kts 19°
2026-05-03 23:07 41.43636 -120.93528 35029 ft 463 kts 19°
2026-05-03 23:08 41.49818 -120.91063 35023 ft 463 kts 19°
2026-05-03 23:08 41.55933 -120.88620 35025 ft 463 kts 19°
2026-05-03 23:09 41.62105 -120.86150 35021 ft 463 kts 19°
2026-05-03 23:09 41.68252 -120.83683 35023 ft 463 kts 19°
2026-05-03 23:10 41.74427 -120.81202 35018 ft 461 kts 19°
2026-05-03 23:10 41.80582 -120.78724 35032 ft 462 kts 19°
2026-05-03 23:11 41.86730 -120.76242 35031 ft 463 kts 19°
2026-05-03 23:11 41.92907 -120.73745 35043 ft 464 kts 18°
2026-05-03 23:12 41.99050 -120.71257 35035 ft 463 kts 18°
2026-05-03 23:12 42.05237 -120.68745 35042 ft 464 kts 18°
2026-05-03 23:13 42.11369 -120.66250 35044 ft 461 kts 18°
2026-05-03 23:13 42.17535 -120.63737 35043 ft 463 kts 18°
2026-05-03 23:14 42.23668 -120.61231 35036 ft 462 kts 18°
2026-05-03 23:14 42.29794 -120.58724 35049 ft 461 kts 18°
2026-05-03 23:15 42.35914 -120.56215 35058 ft 460 kts 18°
2026-05-03 23:15 42.42024 -120.53703 35062 ft 460 kts 18°
2026-05-03 23:16 42.48127 -120.51045 35062 ft 459 kts 24°
2026-05-03 23:16 42.53675 -120.46786 35076 ft 459 kts 33°
2026-05-03 23:17 42.59038 -120.42075 35057 ft 459 kts 33°
2026-05-03 23:17 42.64363 -120.37373 35050 ft 459 kts 33°
2026-05-03 23:18 42.69689 -120.32654 35038 ft 458 kts 34°
2026-05-03 23:18 42.75050 -120.27890 35029 ft 459 kts 33°
2026-05-03 23:19 42.80371 -120.23150 35030 ft 457 kts 33°
2026-05-03 23:19 42.85671 -120.18419 35034 ft 460 kts 33°
2026-05-03 23:20 42.91018 -120.13635 35032 ft 459 kts 33°
2026-05-03 23:20 42.96377 -120.08829 35031 ft 460 kts 33°
2026-05-03 23:21 43.01696 -120.04050 35022 ft 460 kts 33°
2026-05-03 23:21 43.07035 -119.99242 35017 ft 460 kts 33°
2026-05-03 23:22 43.15022 -119.92030 35020 ft 459 kts 33°
2026-05-03 23:22 43.20347 -119.87210 35022 ft 459 kts 33°
2026-05-03 23:23 43.25679 -119.82374 35029 ft 459 kts 33°
2026-05-03 23:23 43.30984 -119.77550 35033 ft 458 kts 33°
2026-05-03 23:24 43.36300 -119.72706 35031 ft 459 kts 33°
2026-05-03 23:24 43.41591 -119.67876 35041 ft 459 kts 33°
2026-05-03 23:25 43.46884 -119.63032 35027 ft 458 kts 33°
2026-05-03 23:25 43.52174 -119.58182 35033 ft 458 kts 33°
2026-05-03 23:26 43.57468 -119.53318 35033 ft 457 kts 33°
2026-05-03 23:26 43.62738 -119.48464 35038 ft 457 kts 33°
2026-05-03 23:27 43.68058 -119.43555 35055 ft 458 kts 33°
2026-05-03 23:27 43.73339 -119.38671 35057 ft 457 kts 33°
2026-05-03 23:28 43.78596 -119.33799 35065 ft 459 kts 33°
2026-05-03 23:28 43.83891 -119.28880 35069 ft 457 kts 33°
2026-05-03 23:29 43.89151 -119.23984 35068 ft 457 kts 33°
2026-05-03 23:29 43.94409 -119.19078 35063 ft 457 kts 33°
2026-05-03 23:30 43.99702 -119.14130 35070 ft 457 kts 33°
2026-05-03 23:30 44.04944 -119.09219 35068 ft 457 kts 33°
2026-05-03 23:31 44.10193 -119.04291 35070 ft 457 kts 33°
2026-05-03 23:31 44.15459 -118.99334 35073 ft 455 kts 33°
2026-05-03 23:32 44.20711 -118.94382 35076 ft 454 kts 33°
2026-05-03 23:32 44.25900 -118.89477 35080 ft 453 kts 33°
2026-05-03 23:33 44.31102 -118.84550 35073 ft 453 kts 34°
2026-05-03 23:33 44.36329 -118.79587 35070 ft 452 kts 33°
2026-05-03 23:34 44.41484 -118.74683 35064 ft 452 kts 34°
2026-05-03 23:34 44.46704 -118.69705 35059 ft 452 kts 33°
2026-05-03 23:35 44.51867 -118.64772 35060 ft 450 kts 33°
2026-05-03 23:35 44.57035 -118.59823 35064 ft 451 kts 34°
2026-05-03 23:36 44.62184 -118.54881 35061 ft 449 kts 34°
2026-05-03 23:36 44.67327 -118.49934 35060 ft 448 kts 34°
2026-05-03 23:37 44.72467 -118.44981 35053 ft 448 kts 34°
2026-05-03 23:37 44.77600 -118.40022 35052 ft 447 kts 34°
2026-05-03 23:38 44.82722 -118.35062 35054 ft 447 kts 34°
2026-05-03 23:38 44.87820 -118.30115 35061 ft 446 kts 34°
2026-05-03 23:39 44.92905 -118.25171 35066 ft 444 kts 34°
2026-05-03 23:39 44.97984 -118.20221 35073 ft 446 kts 34°
2026-05-03 23:40 45.03089 -118.15235 35065 ft 445 kts 34°
2026-05-03 23:40 45.08161 -118.10271 35042 ft 446 kts 34°
2026-05-03 23:41 45.13258 -118.05270 35018 ft 445 kts 34°
2026-05-03 23:41 45.18328 -118.00285 34996 ft 446 kts 34°
2026-05-03 23:42 45.23394 -117.95293 34994 ft 444 kts 34°
2026-05-03 23:42 45.28490 -117.90260 34999 ft 446 kts 34°
2026-05-03 23:43 45.33589 -117.85214 35013 ft 446 kts 34°
2026-05-03 23:43 45.38664 -117.80180 35025 ft 446 kts 34°
2026-05-03 23:44 45.43745 -117.75128 35037 ft 447 kts 34°
2026-05-03 23:44 45.48826 -117.70067 35044 ft 445 kts 34°
2026-05-03 23:45 45.53889 -117.65010 35042 ft 445 kts 34°
2026-05-03 23:45 45.58964 -117.59930 35032 ft 446 kts 34°
2026-05-03 23:46 45.64031 -117.54847 35028 ft 446 kts 34°
2026-05-03 23:46 45.69106 -117.49744 35027 ft 448 kts 34°
2026-05-03 23:47 45.74188 -117.44623 35024 ft 447 kts 34°
2026-05-03 23:47 45.79265 -117.39495 35021 ft 446 kts 34°
2026-05-03 23:48 45.84310 -117.34389 35015 ft 447 kts 35°
2026-05-03 23:48 45.89392 -117.29232 35002 ft 448 kts 34°
2026-05-03 23:49 45.94462 -117.24076 34988 ft 448 kts 34°
2026-05-03 23:49 45.99540 -117.18901 34978 ft 449 kts 34°
2026-05-03 23:50 46.03782 -117.14568 34980 ft 450 kts 34°
2026-05-03 23:50 46.09729 -117.08479 34963 ft 449 kts 34°
2026-05-03 23:51 46.14796 -117.03279 34963 ft 450 kts 34°
2026-05-03 23:51 46.19887 -116.98042 34953 ft 448 kts 34°
2026-05-03 23:52 46.24917 -116.92856 34950 ft 448 kts 34°
2026-05-03 23:52 46.30000 -116.87603 34954 ft 447 kts 34°
2026-05-03 23:53 46.35022 -116.82401 34957 ft 447 kts 34°
2026-05-03 23:53 46.40061 -116.77168 34951 ft 446 kts 34°
2026-05-03 23:54 46.45077 -116.71948 34943 ft 447 kts 34°
2026-05-03 23:54 46.50098 -116.66711 34931 ft 446 kts 34°
2026-05-03 23:55 46.55135 -116.61445 34927 ft 445 kts 34°
2026-05-03 23:55 46.60141 -116.56199 34933 ft 444 kts 34°
2026-05-03 23:56 46.65122 -116.50967 34949 ft 445 kts 34°
2026-05-03 23:56 46.70120 -116.45705 34970 ft 444 kts 34°
2026-05-03 23:57 46.75102 -116.40448 34983 ft 444 kts 34°
2026-05-03 23:57 46.80077 -116.35184 34985 ft 443 kts 34°
2026-05-03 23:58 46.85044 -116.29919 34993 ft 443 kts 35°
2026-05-03 23:58 46.90045 -116.24604 34993 ft 442 kts 35°
2026-05-03 23:59 46.94982 -116.19345 35000 ft 444 kts 35°
2026-05-03 23:59 46.99941 -116.14050 35008 ft 442 kts 35°
2026-05-04 00:00 47.04900 -116.08743 35015 ft 443 kts 35°
2026-05-04 00:00 47.09853 -116.03431 35010 ft 441 kts 35°
2026-05-04 00:01 47.14815 -115.98095 35018 ft 441 kts 35°
2026-05-04 00:01 47.19732 -115.92795 35010 ft 442 kts 35°
2026-05-04 00:02 47.24717 -115.87410 35008 ft 443 kts 35°
2026-05-04 00:02 47.29650 -115.82067 35009 ft 444 kts 35°
2026-05-04 00:03 47.34620 -115.76673 35023 ft 445 kts 35°
2026-05-04 00:03 47.39592 -115.71262 35028 ft 445 kts 34°
2026-05-04 00:04 47.44534 -115.65870 35036 ft 445 kts 35°
2026-05-04 00:04 47.49291 -115.59927 35043 ft 448 kts 39°
2026-05-04 00:05 47.53959 -115.53916 35033 ft 446 kts 39°
2026-05-04 00:05 47.58651 -115.47849 35020 ft 448 kts 39°
2026-05-04 00:06 47.63311 -115.41803 35012 ft 447 kts 39°
2026-05-04 00:06 47.67959 -115.35758 35014 ft 449 kts 39°
2026-05-04 00:07 47.72650 -115.29639 35021 ft 447 kts 39°
2026-05-04 00:07 47.77273 -115.23592 35032 ft 447 kts 39°
2026-05-04 00:08 47.81941 -115.17471 35012 ft 448 kts 39°
2026-05-04 00:08 47.86592 -115.11358 35002 ft 449 kts 39°
2026-05-04 00:09 47.91261 -115.05204 34978 ft 449 kts 39°
2026-05-04 00:09 47.95935 -114.99030 34961 ft 449 kts 39°
2026-05-04 00:10 48.00565 -114.92896 35050 ft 448 kts 39°
2026-05-04 00:10 48.05196 -114.86748 34915 ft 447 kts 39°
2026-05-04 00:11 48.09842 -114.80565 34971 ft 449 kts 39°
2026-05-04 00:11 48.14487 -114.74367 35009 ft 450 kts 39°
2026-05-04 00:12 48.19139 -114.68140 35010 ft 445 kts 38°
2026-05-04 00:12 48.23742 -114.61968 34989 ft 448 kts 39°
2026-05-04 00:13 48.28356 -114.55764 34975 ft 446 kts 38°